Weather History for Gonzales, LA

Change the Weather History Date:

Sunday, October 28, 2012

  Actual Average (KBTR) Record (KBTR)
Temperature  
Mean Temperature 54 °F 66 °F  
Max Temperature 65 °F 78 °F 89 °F (1963)
Min Temperature 43 °F 54 °F 32 °F (1957)
Degree Days  
Heating Degree Days 11 3  
Month to date heating degree days 35  
Since 1 July heating degree days 37  
Cooling Degree Days 0 4  
Month to date cooling degree days 169  
Year to date cooling degree days 2740  
Growing Degree Days 4 (Base 50)    
Moisture  
Dew Point 37 °F    
Average Humidity 58    
Maximum Humidity 78    
Minimum Humidity 30    
Precipitation  
Precipitation 0.00 in 0.15 in 5.19 in (1896)
Month to date precipitation 4.25  
Year to date precipitation 50.50  
Snow  
Snow - - - ()
Month to date snowfall  
Since 1 July snowfall  
Since 1 September snowfall  
Snow Depth -    
Sea Level Pressure  
Sea Level Pressure 30.09 in    
Wind  
Wind Speed 8 mph ()    
Max Wind Speed 16 mph    
Max Gust Speed 24 mph    
Visibility 10.0 miles    
Events      
T = Trace of Precipitation, MM = Missing Value Source: Averaged Metar Reports

Daily Weather History Graph

Daily Weather History Graph

Search for Another Location

Airport:

Trip Planner

Search our weather history database for the weather conditions in past years. The results will help you decide how hot, cold, wet, or windy it might be!

Date:

Astronomy

Oct. 28, 2012 Rise Set
Actual Time 7:15 AM CDT 6:19 PM CDT
Civil Twilight 6:50 AM CDT 6:43 PM CDT
Nautical Twilight 6:22 AM CDT 7:12 PM CDT
Astronomical Twilight 5:54 AM CDT 7:40 PM CDT
Moon 5:36 PM CDT (10/28) 6:10 AM CDT (10/28)
Length of Visible Light 11h 53m
Length of Day
11h 04m
Waxing Gibbous, 99% of the Moon is Illuminated
Oct 28
Waxing Gibbous
Oct 29
Full
Nov 6
Last Quarter
Nov 13
New
Nov 20
First Quarter

Hourly Weather History & Observations

Time (CDT) Temp. Windchill Dew Point Humidity Pressure Visibility Wind Dir Wind Speed Gust Speed Precip Events Conditions
12:15 AM 48.4 °F - 39.0 °F 70% 30.08 in 10.0 mi NNW 9.2 mph - N/A   Clear
12:35 AM 48.0 °F - 39.2 °F 72% 30.08 in 10.0 mi NNW 6.9 mph - N/A   Clear
12:55 AM 47.3 °F - 39.2 °F 73% 30.08 in 10.0 mi NW 4.6 mph - N/A   Clear
1:15 AM 46.4 °F 44.3 °F 39.0 °F 75% 30.08 in 10.0 mi NNW 4.6 mph - N/A   Clear
1:35 AM 45.9 °F 43.6 °F 38.8 °F 76% 30.08 in 10.0 mi NNW 4.6 mph - N/A   Clear
1:55 AM 46.0 °F 43.1 °F 38.5 °F 75% 30.07 in 10.0 mi NNW 5.8 mph - N/A   Clear
2:15 AM 46.8 °F - 37.8 °F 71% 30.06 in 10.0 mi NNW 11.5 mph - N/A   Clear
2:35 AM 46.9 °F - 37.4 °F 69% 30.06 in 10.0 mi North 9.2 mph - N/A   Clear
2:55 AM 46.6 °F - 37.4 °F 70% 30.06 in 10.0 mi NNW 8.1 mph - N/A   Clear
3:15 AM 46.4 °F 42.4 °F 37.0 °F 70% 30.06 in 10.0 mi North 8.1 mph - N/A   Clear
3:35 AM 46.4 °F 42.4 °F 36.9 °F 69% 30.06 in 10.0 mi North 8.1 mph - N/A   Clear
3:55 AM 45.5 °F 41.3 °F 37.0 °F 72% 30.07 in 10.0 mi NNW 8.1 mph - N/A   Clear
4:15 AM 44.8 °F 41.6 °F 37.0 °F 74% 30.07 in 10.0 mi NNW 5.8 mph - N/A   Clear
4:35 AM 44.1 °F 40.8 °F 37.0 °F 76% 30.07 in 10.0 mi North 5.8 mph - N/A   Clear
4:55 AM 43.7 °F 40.3 °F 37.0 °F 77% 30.08 in 10.0 mi North 5.8 mph - N/A   Clear
5:15 AM 44.2 °F 41.0 °F 36.9 °F 75% 30.08 in 10.0 mi North 5.8 mph - N/A   Clear
5:35 AM 43.7 °F 39.7 °F 36.9 °F 77% 30.08 in 10.0 mi NNW 6.9 mph - N/A   Clear
5:55 AM 43.7 °F 39.7 °F 36.9 °F 77% 30.09 in 10.0 mi NNW 6.9 mph - N/A   Clear
6:15 AM 43.5 °F 39.4 °F 36.7 °F 77% 30.09 in 10.0 mi NNW 6.9 mph - N/A   Clear
6:35 AM 43.3 °F 39.2 °F 36.9 °F 78% 30.10 in 10.0 mi NNW 6.9 mph - N/A   Clear
6:55 AM 43.7 °F 39.1 °F 36.5 °F 76% 30.10 in 10.0 mi NNW 8.1 mph - N/A   Clear
7:15 AM 43.0 °F 38.2 °F 36.5 °F 78% 30.11 in 10.0 mi NNW 8.1 mph - N/A   Clear
7:35 AM 43.3 °F 38.6 °F 36.5 °F 77% 30.11 in 10.0 mi NNW 8.1 mph - N/A   Clear
7:55 AM 44.1 °F 39.0 °F 36.7 °F 75% 30.12 in 10.0 mi NNW 9.2 mph - N/A   Clear
8:15 AM 45.3 °F 39.7 °F 37.0 °F 73% 30.12 in 10.0 mi NNW 11.5 mph 16.1 mph N/A   Clear
8:35 AM 46.6 °F - 37.2 °F 70% 30.13 in 10.0 mi North 8.1 mph - N/A   Clear
8:55 AM 47.5 °F - 37.4 °F 68% 30.13 in 10.0 mi NNW 10.4 mph - N/A   Clear
9:35 AM 50.7 °F - 37.6 °F 61% 30.14 in 10.0 mi North 11.5 mph - N/A   Clear
9:55 AM 52.0 °F - 37.2 °F 57% 30.13 in 10.0 mi NNW 13.8 mph 18.4 mph N/A   Clear
10:15 AM 53.2 °F - 37.2 °F 55% 30.13 in 10.0 mi North 8.1 mph - N/A   Clear
10:35 AM 54.1 °F - 37.0 °F 52% 30.13 in 10.0 mi NNW 11.5 mph 17.3 mph N/A   Clear
10:55 AM 55.0 °F - 36.7 °F 50% 30.13 in 10.0 mi North 15.0 mph 21.9 mph N/A   Clear
11:15 AM 55.9 °F - 36.7 °F 48% 30.12 in 10.0 mi North 12.7 mph 17.3 mph N/A   Clear
11:35 AM 57.2 °F - 36.1 °F 45% 30.12 in 10.0 mi North 15.0 mph 19.6 mph N/A   Clear
11:55 AM 58.5 °F - 37.0 °F 45% 30.11 in 10.0 mi North 10.4 mph 17.3 mph N/A   Clear
12:15 PM 59.0 °F - 34.0 °F 39% 30.11 in 10.0 mi NNW 15.0 mph 19.6 mph N/A   Clear
12:35 PM 59.9 °F - 35.6 °F 40% 30.10 in 10.0 mi NNW 12.7 mph 19.6 mph N/A   Clear
12:55 PM 60.8 °F - 34.9 °F 38% 30.08 in 10.0 mi North 12.7 mph 19.6 mph N/A   Clear
1:15 PM 62.1 °F - 35.4 °F 37% 30.07 in 10.0 mi NNW 11.5 mph 16.1 mph N/A   Clear
1:35 PM 62.1 °F - 34.9 °F 36% 30.06 in 10.0 mi NNW 12.7 mph 19.6 mph N/A   Clear
1:55 PM 63.1 °F - 34.7 °F 35% 30.06 in 10.0 mi NNW 12.7 mph 20.7 mph N/A   Clear
2:15 PM 63.9 °F - 34.5 °F 34% 30.05 in 10.0 mi NNW 11.5 mph 19.6 mph N/A   Clear
2:35 PM 64.6 °F - 35.1 °F 33% 30.05 in 10.0 mi NW 12.7 mph 21.9 mph N/A   Clear
2:55 PM 64.4 °F - 33.6 °F 32% 30.05 in 10.0 mi NNW 15.0 mph 23.0 mph N/A   Clear
3:15 PM 64.6 °F - 32.9 °F 31% 30.05 in 10.0 mi NNW 16.1 mph 24.2 mph N/A   Clear
3:35 PM 64.9 °F - 33.6 °F 31% 30.05 in 10.0 mi North 10.4 mph - N/A   Clear
3:55 PM 65.1 °F - 32.5 °F 30% 30.04 in 10.0 mi North 9.2 mph 19.6 mph N/A   Clear
4:15 PM 64.6 °F - 32.5 °F 30% 30.05 in 10.0 mi North 12.7 mph - N/A   Clear
4:35 PM 64.6 °F - 33.3 °F 31% 30.05 in 10.0 mi North 12.7 mph 18.4 mph N/A   Clear
4:55 PM 64.2 °F - 34.5 °F 33% 30.05 in 10.0 mi NNW 9.2 mph - N/A   Clear
5:15 PM 63.5 °F - 35.1 °F 35% 30.05 in 10.0 mi NNW 15.0 mph 19.6 mph N/A   Clear
5:35 PM 62.6 °F - 35.4 °F 36% 30.06 in 10.0 mi NNW 9.2 mph - N/A   Clear
5:55 PM 61.0 °F - 35.4 °F 38% 30.07 in 10.0 mi North 9.2 mph - N/A   Clear
6:15 PM 58.3 °F - 36.5 °F 44% 30.08 in 10.0 mi NNW 3.5 mph - N/A   Clear
6:35 PM 56.7 °F - 37.6 °F 49% 30.09 in 10.0 mi NNW 4.6 mph - N/A   Clear
6:55 PM 55.2 °F - 38.5 °F 53% 30.09 in 10.0 mi North 5.8 mph - N/A   Clear
7:15 PM 54.7 °F - 38.3 °F 54% 30.10 in 10.0 mi NNW 4.6 mph - N/A   Clear
7:35 PM 53.6 °F - 38.7 °F 57% 30.10 in 10.0 mi NNW 4.6 mph - N/A   Clear
7:55 PM 51.3 °F - 40.6 °F 67% 30.11 in 10.0 mi Calm Calm - N/A   Clear
8:15 PM 49.3 °F - 42.1 °F 76% 30.12 in 10.0 mi NNW 3.5 mph - N/A   Clear
8:55 PM 50.4 °F - 38.7 °F 64% 30.13 in 10.0 mi NNW 5.8 mph - N/A   Clear
9:15 PM 50.4 °F - 38.3 °F 63% 30.15 in 10.0 mi NNW 4.6 mph - N/A   Clear
9:35 PM 50.0 °F - 37.9 °F 63% 30.15 in 10.0 mi NNW 5.8 mph - N/A   Clear
9:55 PM 50.5 °F - 37.2 °F 60% 30.15 in 10.0 mi NNW 5.8 mph - N/A   Clear
10:15 PM 50.5 °F - 36.5 °F 59% 30.16 in 10.0 mi North 6.9 mph - N/A   Clear
10:35 PM 50.5 °F - 36.3 °F 58% 30.16 in 10.0 mi North 8.1 mph - N/A   Clear
10:55 PM 50.0 °F - 36.5 °F 60% 30.16 in 10.0 mi North 5.8 mph - N/A   Clear
11:15 PM 49.3 °F - 36.5 °F 61% 30.17 in 10.0 mi North 5.8 mph - N/A   Clear
11:55 PM 47.8 °F - 36.7 °F 65% 30.16 in 10.0 mi North 4.6 mph - N/A   Clear